Location: Unspecified
(0.0000°N, 0.0000°E)
Time: 09:24:17
(UTC+00:00)

Vanguard 2 - Pass Details

Date: 25 October 2021
Orbit: 554 x 2936 km, 32.9° (Epoch: 06 December)

Event Time Altitude Azimuth Distance (km) Brightness Sun altitude
Rises 21:23:15 0° 237° (WSW) 6,429 12.8 -53.0°
Reaches altitude 10° 21:27:15 10° 238° (WSW) 5,577 12.3 -53.9°
Enters shadow 21:40:25 59° 251° (WSW) 3,234 10.5 -56.9°
Maximum altitude 21:45:10 80° 323° (NW) 2,904 - -58.0°
Drops below altitude 10° 22:00:44 10° 50° (NE) 4,928 - -61.5°
Sets 22:04:02 0° 51° (NE) 5,680 - -62.3°
